﻿Time (BST),Latitude,Longitude,Course,Direction,kts,mph,meters
Sat 15:48:04,51.4649,-0.4957,270°,West,150,173,335
Sat 15:48:20,51.4669,-0.5154,294°,West,174,200,457
Sat 15:48:35,51.4721,-0.5337,296°,West,194,223,549
Sat 15:48:52,51.4794,-0.558,298°,West,227,261,640
Sat 15:49:07,51.4863,-0.5795,298°,West,248,285,792
Sat 15:49:22,51.4948,-0.6059,299°,West,257,296,"1,067"
Sat 15:49:52,51.5109,-0.6538,302°,West,271,312,"1,524"
Sat 15:50:07,51.5225,-0.6837,304°,West,272,313,"1,829"
Sat 15:50:22,51.5328,-0.7092,304°,West,274,315,"2,134"
Sat 15:50:37,51.5436,-0.7349,305°,West,282,325,"2,377"
Sat 15:50:58,51.5595,-0.7703,308°,West,281,323,"2,774"
Sat 15:51:13,51.5702,-0.7927,312°,West,281,323,"3,048"
Sat 15:51:29,51.5876,-0.8184,323°,Northwest,300,345,"3,231"
Sat 15:51:59,51.6234,-0.861,328°,Northwest,342,394,"3,414"
Sat 15:52:19,51.6549,-0.8784,356°,North,375,432,"3,566"
Sat 15:53:14,51.7494,-0.8633,7°,North,391,450,"4,328"
Sat 15:54:14,51.8542,-0.8451,5°,North,403,464,"5,029"
Sat 15:55:14,51.9743,-0.8252,6°,North,420,483,"5,700"
Sat 15:56:14,52.0854,-0.8064,6°,North,429,494,"6,309"
Sat 15:57:14,52.1999,-0.788,5°,North,434,499,"6,888"
Sat 15:57:38,52.2496,-0.7891,352°,North,431,496,"7,132"
Sat 15:58:20,52.3238,-0.8381,336°,Northwest,430,495,"7,468"
Sat 15:59:21,52.4334,-0.9212,336°,Northwest,439,505,"7,925"
Sat 16:00:21,52.5408,-1.0039,336°,Northwest,443,510,"8,382"
Sat 16:01:22,52.653,-1.0905,335°,Northwest,449,517,"8,900"
Sat 16:02:23,52.7744,-1.185,336°,Northwest,446,513,"9,327"
Sat 16:03:13,52.87,-1.2598,334°,Northwest,462,532,"9,754"
Sat 16:03:37,52.9214,-1.3,336°,Northwest,449,517,"9,754"
Sat 16:04:12,52.9855,-1.3506,334°,Northwest,446,513,"9,754"
Sat 16:05:27,53.1181,-1.4557,335°,Northwest,453,521,"9,754"
Sat 16:05:59,53.1876,-1.5112,334°,Northwest,451,519,"9,754"
Sat 16:06:29,53.2443,-1.5565,335°,Northwest,450,518,"9,754"
Sat 16:07:01,53.2976,-1.5992,335°,Northwest,450,518,"9,754"
Sat 16:07:31,53.3568,-1.6468,334°,Northwest,451,519,"9,754"
Sat 16:08:01,53.4157,-1.6943,334°,Northwest,452,520,"9,754"
Sat 16:08:34,53.4782,-1.7449,335°,Northwest,453,521,"9,754"
Sat 16:09:04,53.5224,-1.7806,335°,Northwest,452,520,"9,754"
Sat 16:09:34,53.5927,-1.8379,335°,Northwest,452,520,"9,754"
Sat 16:10:08,53.6537,-1.8879,335°,Northwest,452,520,"9,754"
Sat 16:10:38,53.7094,-1.9334,335°,Northwest,453,521,"9,754"
Sat 16:11:08,53.7633,-1.9777,335°,Northwest,453,521,"9,754"
Sat 16:11:39,53.8277,-2.0308,335°,Northwest,455,524,"9,754"
Sat 16:12:09,53.8828,-2.0763,335°,Northwest,453,521,"9,754"
Sat 16:12:39,53.9396,-2.1234,335°,Northwest,454,522,"9,754"
Sat 16:13:03,53.9843,-2.1606,333°,Northwest,446,513,"9,754"
Sat 16:13:33,54.0379,-2.2053,335°,Northwest,450,518,"9,754"
Sat 16:14:03,54.0971,-2.2548,335°,Northwest,449,517,"9,754"
Sat 16:14:33,54.1504,-2.2993,335°,Northwest,448,516,"9,754"
Sat 16:15:03,54.1956,-2.3373,335°,Northwest,447,514,"9,754"
Sat 16:15:33,54.2499,-2.3831,335°,Northwest,447,514,"9,754"
Sat 16:16:03,54.3217,-2.4427,335°,Northwest,449,517,"9,754"
Sat 16:16:33,54.3751,-2.4865,336°,Northwest,448,516,"9,754"
Sat 16:17:03,54.4159,-2.5196,336°,Northwest,449,517,"9,754"
Sat 16:17:33,54.4886,-2.5785,336°,Northwest,449,517,"9,754"
Sat 16:18:05,54.5375,-2.6174,336°,Northwest,449,517,"9,754"
Sat 16:18:36,54.604,-2.6699,336°,Northwest,448,516,"9,479"
Sat 16:19:00,54.6493,-2.7068,334°,Northwest,460,529,"8,900"
Sat 16:19:30,54.7042,-2.752,336°,Northwest,460,529,"8,504"
Sat 16:20:00,54.7646,-2.7999,336°,Northwest,455,524,"8,108"
Sat 16:20:25,54.8078,-2.8361,334°,Northwest,441,507,"7,955"
Sat 16:21:01,54.8739,-2.9028,331°,Northwest,445,512,"7,925"
Sat 16:21:31,54.9314,-2.9602,331°,Northwest,442,509,"7,925"
Sat 16:22:01,54.982,-3.0109,331°,Northwest,437,503,"7,711"
Sat 16:22:31,55.0352,-3.0641,331°,Northwest,433,498,"7,315"
Sat 16:23:09,55.0947,-3.1219,332°,Northwest,425,489,"6,888"
Sat 16:23:39,55.145,-3.17,332°,Northwest,418,481,"6,523"
Sat 16:24:09,55.2033,-3.2262,331°,Northwest,419,482,"5,944"
Sat 16:24:39,55.2543,-3.2755,332°,Northwest,409,471,"5,578"
Sat 16:25:09,55.3011,-3.3205,332°,Northwest,407,468,"5,395"
Sat 16:25:39,55.3516,-3.3692,332°,Northwest,394,453,"5,060"
Sat 16:25:59,55.382,-3.3971,337°,Northwest,382,440,"4,938"
Sat 16:26:15,55.4107,-3.4131,351°,North,394,453,"4,877"
Sat 16:26:33,55.4447,-3.415,0°,North,409,471,"4,877"
Sat 16:26:49,55.4751,-3.4003,23°,Northeast,424,488,"4,877"
Sat 16:27:30,55.5455,-3.3438,23°,Northeast,407,468,"4,877"
Sat 16:28:33,55.6554,-3.2619,23°,Northeast,409,471,"4,267"
Sat 16:29:34,55.7593,-3.183,24°,Northeast,388,447,"3,231"
Sat 16:29:55,55.7924,-3.1567,25°,Northeast,368,423,"3,048"
Sat 16:30:10,55.8146,-3.138,26°,Northeast,352,405,"2,957"
Sat 16:30:25,55.8374,-3.1186,26°,Northeast,335,386,"2,865"
Sat 16:30:40,55.8576,-3.1007,26°,Northeast,326,375,"2,713"
Sat 16:30:55,55.8779,-3.0832,26°,Northeast,323,372,"2,560"
Sat 16:31:10,55.8978,-3.0662,26°,Northeast,317,365,"2,438"
Sat 16:31:26,55.9184,-3.0486,26°,Northeast,310,357,"2,286"
Sat 16:31:41,55.9387,-3.0309,27°,Northeast,306,352,"2,103"
Sat 16:31:56,55.9564,-3.0149,26°,Northeast,296,341,"1,981"
Sat 16:32:11,55.9729,-3.0008,25°,Northeast,292,336,"1,829"
Sat 16:32:26,55.9931,-2.9851,23°,Northeast,293,337,"1,615"
Sat 16:32:41,56.0118,-2.9713,22°,Northeast,293,337,"1,433"
Sat 16:32:58,56.0328,-2.9613,3°,North,268,308,"1,341"
Sat 16:33:15,56.0512,-2.969,330°,Northwest,233,268,"1,250"
Sat 16:33:32,56.0603,-2.9846,293°,West,204,235,"1,189"
Sat 16:33:51,56.0622,-3.0221,260°,West,182,209,"1,097"
Sat 16:34:10,56.0575,-3.0473,249°,West,169,194,"1,067"
Sat 16:34:51,56.0428,-3.0975,240°,Southwest,163,188,945
Sat 16:35:08,56.0363,-3.1166,240°,Southwest,163,188,914
Sat 16:35:25,56.0296,-3.1364,240°,Southwest,156,180,853
Sat 16:35:40,56.0243,-3.1522,240°,Southwest,153,176,792
Sat 16:35:55,56.0185,-3.1696,240°,Southwest,153,176,732
Sat 16:36:10,56.013,-3.186,240°,Southwest,150,173,671
Sat 16:36:25,56.0077,-3.2017,240°,Southwest,148,170,610
Sat 16:36:40,56.0023,-3.2173,240°,Southwest,149,171,549
Sat 16:36:55,55.997,-3.2332,240°,Southwest,150,173,488
Sat 16:37:10,55.9917,-3.2491,240°,Southwest,144,166,427
Sat 16:37:25,55.9868,-3.2633,240°,Southwest,131,151,366
Sat 16:37:41,55.9821,-3.2774,240°,Southwest,127,146,335
Sat 16:37:56,55.9774,-3.2912,240°,Southwest,126,145,274
Sat 16:38:18,55.9709,-3.3107,240°,Southwest,126,145,213
